Jackpot

Texas Poker Multi Jackpot System

Kini Telah hadir Jackpot SUPER ROYAL FLUSH

Kini Telah hadir Jackpot 2000 (khusus table VIP keatas).

Ikutilah global jackpot yang tersedia di system kami, dengan system jackpot terbaru dan pertama di indonesia, anda dapat membeli jackpot dengan harga 100 rupiah saja dan menangkan hadiahnya hingga puluhan juta rupiah.

Jackpot bukanlah suatu keharusan untuk dibeli, namun kami memberikan suatu fitur tambahan untuk member tercinta dari www.indopoker168.com.

Terdapat tiga pilihan harga jackpot yang bisa anda beli yaitu :100,500,1000 dan 2000(khusus table VIP Keatas) rupiah.

Hadiah dari Multi jackpot system www.indopoker168.com

  1. full house x 10 harga jackpot yang anda beli.
      (contoh:anda membeli 1000 maka:1000 X10 = 10.000)
  2. four of kind x 250 harga jackpot yang anda beli
      (contoh:anda membeli 1000 maka:1000 X250 = 250.000)
  3. Straight flush x 1200
      (contoh:anda membeli 1000 maka:1000 X1200 = 1.200.000)
  4. Royal flush x 10000 harga jackpot yang anda beli
      (contoh:anda membeli 1000 maka:1000 X10000 = 10.000.000)
  5. SUPER ROYAL FLUSH x 30000 harga jackpot yang anda beli
      (contoh:anda membeli 1000 maka:1000 X30000 = 30.000.000)

Kondisi kartu

  1. full house adalah kondisi kartu dimana kartu anda dan kartu tengah dengan total 7 kartu bisa mendapatkan nilai 5 kartu dengan kombinasi 1 tris(three of kind) dan 1 pair, contoh 3 kartu 10 dan 2 kartu 5
  2. Four of kind adalah kondisi kartu dimana kartu anda dan kartu tengah dengan total 7 kartu bisa mendapatkan nilai 5 kartu dengan kombinasi 4 kartu yang sama jumlah dan 1 kartu apapun juga contoh anda mendapatkan 4 buah kartu angka 3 dan 1 kartu apapun.
  3. Staright flush adalah kondisi kartu dimana kartu anda dan kartu tengah dengan total 7 kartu bisa mendapatkan nilai 5 kartu dengan kombinasi seri / staright dengan kembang yang sama contoh : urutan kartu dari angka 5, 6, 7, 8 , 9 10 dengan kembang yg sama misalnya as hati
  4. Royal flush adalah kondisi kartu dimana kartu anda dan kartu tengah dengan total 7 kartu bisa mendapatkan nilai 5 kartu dengan kombinasi seri / staright dengan kembang yang sama tetapi kartu tersebut haruslah dimulai dari 10. contoh 10, Queen, Jack, King dan aces dengan kembang yang sama
  5. Super Royal flush adalah kondisi kartu dimana Kedua kartu anda digabung dengan 3 kartu pertama meja haruslah royal flush. contoh kartu anda 10,Queen kembang sama dan 3 kartu pertama meja adalah Jack, King dan aces dengan kembang yang sama

Demikian adalah penjelasan dari Multi Jackpot www.indopoker168.com terima kasih dan selamat bermain salam hoki dari kami

Texas Poker Jackpot Winner

TOP SUPER ROYAL FLUSH
No.TanggalNamaPriceWin
119/09 09:32VISUAL_88Super Royal flush30,000,000
219/09 04:30SEKELESuper Royal flush6,000,000
319/09 03:55E89695E9Super Royal flush6,000,000
419/09 03:47BANGS4Super Royal flush3,000,000
519/09 03:32MANAP994Super Royal flush6,000,000
TOP ROYAL FLUSH
No.TanggalNamaPriceWin
119/09 13:53SITARUM1Royal flush1,000,000
219/09 13:49ASHUN86Royal flush2,000,000
319/09 13:38PCK4ONE77Royal flush2,000,000
419/09 13:26JP_1NRoyal flush2,000,000
519/09 12:49RASKIN11Royal flush2,000,000
TOP STRAIGHT FLUSH
No.TanggalNamaPriceWin
119/09 13:57GIBEG87Straight Flush240,000
219/09 13:56PERBUSAStraight Flush240,000
319/09 13:55DECIS87Straight Flush240,000
419/09 13:53BINSTAStraight Flush120,000
519/09 13:52DELIANA01Straight Flush120,000
LATEST JACKPOT
No.TanggalNamaPriceWin
119/09 13:58RHAM85Full House10,000
219/09 13:58PANDACOIFull House1,000
319/09 13:58XQC0HEF93QFull House2,000
419/09 13:58HAYUNINGFull House1,000
519/09 13:58ABUH00Full House2,000
619/09 13:57BREENK09Full House5,000
719/09 13:57555_BIEFull House5,000
819/09 13:57ARNEZAJAFull House1,000
919/09 13:57ZINAH092Full House5,000
1019/09 13:57TANUS07Full House10,000
1119/09 13:57BAJIGURFull House5,000
1219/09 13:57BOBY_BOMBSFull House2,000
1319/09 13:57BJTFull House10,000
1419/09 13:57BE97B95AFull House2,000
1519/09 13:57ROSE17Full House1,000
1619/09 13:57SAR1_AYUFull House2,000
1719/09 13:57T4DONLINE68Full House10,000
1819/09 13:57DF110FC0Full House5,000
1919/09 13:57CAFE888Full House2,000
2019/09 13:57PETER9999Full House2,000
2119/09 13:57SERONG_5Full House5,000
2219/09 13:57GOOGLE9Full House1,000
2319/09 13:57MERPATI255Full House2,000
2419/09 13:57PCK4HOKIE88Full House2,000
2519/09 13:57GIBEG87Straight Flush240,000
2619/09 13:57STRAIGH378Four Of A Kind500,000
2719/09 13:57DIKA070898Full House5,000
2819/09 13:57PADAMELANGFull House2,000
2919/09 13:57B4482SAFFull House2,000
3019/09 13:57R1A9999Full House5,000
3119/09 13:57CEMBRE05Full House5,000
3219/09 13:57BORKY27Four Of A Kind25,000
3319/09 13:57YOELLLLFull House1,000
3419/09 13:57MECHANIKALFull House2,000
3519/09 13:57LAMSEEFull House5,000
3619/09 13:57JITU1984Full House2,000
3719/09 13:57MRREZA88Four Of A Kind50,000
3819/09 13:57ZEUZ_88Full House10,000
3919/09 13:57C6671978Full House5,000
4019/09 13:57MSKSFull House2,000
4119/09 13:57ZEGERR106Full House10,000
4219/09 13:57WAKWAW40Full House2,000
4319/09 13:57PARJIMANFull House5,000
4419/09 13:57CAHYADXXXFull House10,000
4519/09 13:57MASPEJEFull House2,000
4619/09 13:57SATESFull House5,000
4719/09 13:57AJIMARWAFull House2,000
4819/09 13:57ABEB212Full House5,000
4919/09 13:57PT4DMALIH4567Full House1,000
5019/09 13:57TUKEN1MFull House2,000

Domino Multi Jackpot System

Ikutilah global jackpot yang tersedia di system kami, dengan system jackpot terbaru dan pertama di indonesia, anda dapat membeli jackpot dengan harga 100 rupiah saja dan menangkan hadiahnya hingga puluhan juta rupiah.

Jackpot bukanlah suatu keharusan untuk dibeli, namun kami memberikan suatu fitur tambahan untuk member tercinta dari www.indopoker168.com.

Terdapat tiga pilihan harga jackpot yang bisa anda beli yaitu :100,500 dan 1000 rupiah.

Hadiah dari Multi jackpot system www.indopoker168.com

  1. Murni Kecil x 50 harga jackpot yang anda beli.
      (contoh:anda membeli 1000 maka:1000 X 50 = 50.000)
  2. Murni Besar x 50 harga jackpot yang anda beli
      (contoh:anda membeli 1000 maka:1000 X 50 = 50.000)
  3. BALAK x 100 harga jackpot yang anda beli
      (contoh:anda membeli 1000 maka:1000 X 100 = 100.000)
  4. ENAM DEWA x 6666 harga jackpot yang anda beli
      (contoh:anda membeli 1000 maka:1000 X 6666 = 6.666.000)

Demikian adalah penjelasan dari Multi Jackpot www.indopoker168.com terima kasih dan selamat bermain salam hoki dari kami

Domino Jackpot Winner

TOP ENAM DEWA
No.TanggalNamaPriceWin
119/09 12:23BOSNCOS99murni enam6,666,000
219/09 08:30O012345murni enam6,666,000
319/09 08:09RADEN_JAZZmurni enam3,333,000
419/09 07:23CAMONKKmurni enam6,666,000
519/09 05:25IMPOR202murni enam3,333,000
TOP BALAK
No.TanggalNamaPriceWin
119/09 13:56MAKKARAENGbalak50,000
219/09 13:56TEMPEKTUO1balak100,000
319/09 13:55IIJOObalak50,000
419/09 13:54UMMAT69balak100,000
519/09 13:53N49UNbalak50,000
LATEST JACKPOT
No.TanggalNamaPriceWin
119/09 13:57KOROTZ46murni besar5,000
219/09 13:56MAKKARAENGbalak50,000
319/09 13:56GUDEL60lucky992,500
419/09 13:56TEMPEKTUO1balak100,000
519/09 13:55ANTUBANYU9murni besar25,000
619/09 13:55IIJOObalak50,000
719/09 13:55SBG777murni kecil5,000
819/09 13:54DOKODEOmurni besar50,000
919/09 13:54MONG99murni besar25,000
1019/09 13:54UMMAT69balak100,000
1119/09 13:54VALETGM2murni kecil50,000
1219/09 13:53N49UNbalak50,000
1319/09 13:53ANTUBANYU9balak50,000
1419/09 13:52NHYNHY99murni besar25,000
1519/09 13:52JHON_1701murni besar50,000
1619/09 13:52GONDEL06murni kecil5,000
1719/09 13:51EDG62XFES6murni besar25,000
1819/09 13:51AMSEO99murni kecil25,000
1919/09 13:51CVAY123murni kecil50,000
2019/09 13:51T212BOM99murni kecil5,000
2119/09 13:51RAJA4317murni kecil50,000
2219/09 13:51AKMALIBNUmurni kecil25,000
2319/09 13:50BATTEWmurni besar50,000
2419/09 13:49PANOR123murni besar5,000
2519/09 13:49RIZKYP90murni besar5,000
2619/09 13:49BONGMONlucky9910,000
2719/09 13:49J4Y4murni kecil5,000
2819/09 13:48DASLIM45murni besar5,000
2919/09 13:48YAN99_99murni kecil50,000
3019/09 13:47NURISKAK50murni kecil25,000
3119/09 13:47SAPI696969murni kecil5,000
3219/09 13:47PIYOPIYOmurni besar25,000
3319/09 13:46JPBOS151murni kecil50,000
3419/09 13:46MBAHREBO99murni kecil50,000
3519/09 13:46ADI8900murni kecil5,000
3619/09 13:46TDHMXS911Tmurni besar25,000
3719/09 13:46KOKILA5murni besar5,000
3819/09 13:45BAOK6murni besar50,000
3919/09 13:45B72A8394balak10,000
4019/09 13:45J33XP88Tmurni besar25,000
4119/09 13:44KONTO33murni kecil50,000
4219/09 13:43OTAP75murni besar25,000
4319/09 13:43SUKMA88murni besar50,000
4419/09 13:42GUUH99murni kecil25,000
4519/09 13:42ADIQQ88balak10,000
4619/09 13:41O7YONAF3MVmurni kecil5,000
4719/09 13:41RUDIANAbalak10,000
4819/09 13:41TDHMXS911Tbalak50,000
4919/09 13:41AMSEO99murni kecil25,000
5019/09 13:41SARIDIN12murni besar50,000

Ceme Multi Jackpot System

Jackpot dilihat dari gabungan kartu pemain dengan kartu bandar. Bandar harus membeli jackpot sebanyak jumlah player yang sedang duduk. Sebagai contoh bila terdapat 3 pemain duduk bermain, dan bandar memutuskan untuk membeli jackpot Rp 1.000, maka pada periode tersebut bandar akan membeli jackpot sebanyak 3xRp1.000 = Rp3.000.

Jackpot bukanlah suatu keharusan untuk dibeli, namun kami memberikan suatu fitur tambahan untuk member tercinta dari www.indopoker168.com.

Terdapat tiga pilihan harga jackpot yang bisa anda beli yaitu :100,500 dan 1000 rupiah.

Hadiah dari Multi jackpot system www.indopoker168.com

  1. Murni Kecil x 50 harga jackpot yang anda beli.
      (contoh:anda membeli 1000 maka:1000 X 50 = 50.000)
  2. Murni Besar x 50 harga jackpot yang anda beli
      (contoh:anda membeli 1000 maka:1000 X 50 = 50.000)
  3. BALAK x 200 harga jackpot yang anda beli
      (contoh:anda membeli 1000 maka:1000 X 200 = 200.000)
  4. ENAM DEWA x 6666 harga jackpot yang anda beli
      (contoh:anda membeli 1000 maka:1000 X 6666 = 6.666.000)

Demikian adalah penjelasan dari Multi Jackpot www.indopoker168.com terima kasih dan selamat bermain salam hoki dari kami

Ceme Jackpot Winner

TOP ENAM DEWA
No.TanggalNamaPriceWin
119/09 13:56UCOXXX25murni enam6,666,000
219/09 13:32CHAKI303murni enam6,666,000
319/09 13:32RAFA23murni enam666,600
419/09 12:55UDIN171murni enam6,666,000
519/09 12:30AALAALmurni enam3,333,000
TOP BALAK
No.TanggalNamaPriceWin
119/09 13:57GFJK35balak200,000
219/09 13:57POTONG99balak20,000
319/09 13:56WINNR21balak100,000
419/09 13:55SUWANTO87balak200,000
519/09 13:55ZEN4Lbalak200,000
LATEST JACKPOT
No.TanggalNamaPriceWin
119/09 13:57SOMPILYOIImurni besar50,000
219/09 13:57BTL210198murni besar25,000
319/09 13:57SILO23murni besar50,000
419/09 13:57GURUHSmurni kecil25,000
519/09 13:57IDNYUDI8murni besar50,000
619/09 13:57SOMPILYOIImurni kecil50,000
719/09 13:57R373K1LGmurni kecil50,000
819/09 13:57DARSOmurni besar50,000
919/09 13:57DPTTTWIN88murni besar5,000
1019/09 13:57WIGHUNAmurni kecil50,000
1119/09 13:57GFJK35balak200,000
1219/09 13:57POTONG99balak20,000
1319/09 13:56WINNR21balak100,000
1419/09 13:56MHI13426murni besar5,000
1519/09 13:56SIPUT3284murni besar50,000
1619/09 13:56MIZYUVANmurni besar5,000
1719/09 13:56F2401FB9murni besar25,000
1819/09 13:56ILA5505murni kecil50,000
1919/09 13:56UCOXXX25murni enam6,666,000
2019/09 13:56KOKOROKO28murni kecil50,000
2119/09 13:56M4NANGBKmurni kecil50,000
2219/09 13:56SONYA32murni kecil50,000
2319/09 13:56C0C0LATOSmurni kecil50,000
2419/09 13:56RAMOSEmurni besar50,000
2519/09 13:56OAHRQUYG4Lmurni besar25,000
2619/09 13:55SUWANTO87balak200,000
2719/09 13:55ZEN4Lbalak200,000
2819/09 13:55BENJO01balak100,000
2919/09 13:55T4DKEMOD18murni besar50,000
3019/09 13:55TH3L0STBOYmurni kecil5,000
3119/09 13:55ARSENAL1011murni besar50,000
3219/09 13:55PNH_BRKH66murni besar5,000
3319/09 13:55TATOSSSmurni kecil25,000
3419/09 13:55BEJO5958murni besar50,000
3519/09 13:55DEROQQmurni besar50,000
3619/09 13:55LARON71murni besar5,000
3719/09 13:55UL4Y168balak200,000
3819/09 13:55B48BPA234909murni besar25,000
3919/09 13:55KP_32balak200,000
4019/09 13:55WINNERLOPmurni besar50,000
4119/09 13:55T4DKEMBAR99murni besar25,000
4219/09 13:55SENANG_AJAmurni kecil50,000
4319/09 13:55SUCISACA1murni kecil50,000
4419/09 13:55LUCKYJOB9murni kecil5,000
4519/09 13:54SI8370balak200,000
4619/09 13:54BIB99murni besar25,000
4719/09 13:54DORE69murni besar25,000
4819/09 13:54THIVEmurni kecil25,000
4919/09 13:54PUTRA88888murni kecil50,000
5019/09 13:54RASKAL80murni kecil50,000